Tracking 30701 objects as of 14-Jun-2025
HD Live streaming from Space Station
objects crossing your sky now

GEESAT 3-07

Track GEESAT 3-07 now!
10-day predictions


NORAD ID: 61017
Int'l Code: 2024-159G
Perigee: 590.7 km
Apogee: 599.4 km
Inclination: 50.0 °
Period: 96.4 minutes
Semi major axis: 6966 km
RCS: Unknown
Launch date: September 5, 2024
Source: People's Republic of China (PRC)
Launch site: Taiyaun Space Center, China (TSC)
Your satellite tracking list
Your tracking list is empty




NASA's NSSDC Master Catalog

Two Line Element Set (TLE):
1 61017U 24159G   25165.76382437  .00003674  00000-0  37055-3 0  9998
2 61017  49.9943 353.9068 0006255 272.1127  87.9099 14.93226797 42096
Source of the keplerian elements: AFSPC